AG1T-20 Weather Reports


time (UTC)temp
C
wind
direction
speed
KPH
gust
KPH
rain 1hr
cm
rain 24hr
cm
rain mn
cm
humidity
%
barometer
mb
20260505054005 12 99 1.6 9.7 0.00 0.00 0.00 57 1010.3
20260505053005 12 331 1.6 9.7 0.00 0.00 0.00 56 1010.3
20260505052004 13 204 1.6 9.7 0.00 0.00 0.00 47 1010.3
20260505051005 13 188 1.6 8.0 0.00 0.00 0.00 47 1010.3
20260505041004 13 142 1.6 9.7 0.00 0.00 0.00 50 1010.2
20260505040005 13 154 1.6 8.0 0.00 0.00 0.00 51 1010.2
20260505035004 13 143 1.6 8.0 0.00 0.00 0.00 51 1009.5
20260505034004 13 170 1.6 6.4 0.00 0.00 0.00 49 1009.5
20260505033005 13 143 1.6 6.4 0.00 0.00 0.00 46 1009.5
20260505032005 14 178 1.6 6.4 0.00 0.00 0.00 45 1009.5
20260505031005 13 88 1.6 8.0 0.00 0.00 0.00 47 1009.5
20260505030004 14 155 1.6 9.7 0.00 0.00 0.00 44 1009.5
20260505025004 15 162 1.6 8.0 0.00 0.00 0.00 44 1009.2
20260505024004 15 131 1.6 6.4 0.00 0.00 0.00 41 1009.2
20260505023004 16 134 1.6 9.7 0.00 0.00 0.00 42 1009.2
20260505022005 16 204 1.6 8.0 0.00 0.00 0.00 39 1009.2
20260505021004 17 139 1.6 4.8 0.00 0.00 0.00 40 1009.2
20260505020004 17 152 1.6 6.4 0.00 0.00 0.00 39 1009.2
20260505015004 16 164 1.6 4.8 0.00 0.00 0.00 41 1009.4
20260505014004 17 156 0.0 4.8 0.00 0.00 0.00 38 1009.4
20260505013005 17 147 0.0 6.4 0.00 0.00 0.00 37 1009.4
20260505012004 17 108 1.6 8.0 0.00 0.00 0.00 36 1009.4
20260505011004 17 104 0.0 4.8 0.00 0.00 0.00 39 1009.4
20260505010005 17 75 0.0 3.2 0.00 0.00 0.00 35 1009.4
20260505005005 18 275 1.6 11.3 0.00 0.00 0.00 35 1010.0
20260505004005 18 222 1.6 11.3 0.00 0.00 0.00 35 1010.0
20260505003004 18 323 1.6 8.0 0.00 0.00 0.00 35 1010.0
20260505002004 19 290 1.6 6.4 0.00 0.00 0.00 33 1010.0
20260505001004 18 283 1.6 14.5 0.00 0.00 0.00 31 1010.0
20260505000004 18 30 1.6 12.9 0.00 0.00 0.00 37 1010.0
20260504235004 18 348 3.2 16.1 0.00 0.00 0.00 34 1009.3
20260504234004 19 23 3.2 17.7 0.00 0.00 0.00 34 1009.3
20260504233004 21 348 4.8 25.7 0.00 0.00 0.00 29 1009.3
20260504232004 22 0 4.8 25.7 0.00 0.00 0.00 28 1009.3
20260504231004 23 334 3.2 16.1 0.00 0.00 0.00 22 1009.3
20260504230005 24 282 1.6 9.7 0.00 0.00 0.00 20 1009.3
20260504225005 24 284 1.6 11.3 0.00 0.00 0.00 22 1009.5
20260504224004 23 334 3.2 14.5 0.00 0.00 0.00 20 1009.5
20260504223004 24 327 1.6 11.3 0.00 0.00 0.00 20 1009.5
20260504222004 24 250 1.6 9.7 0.00 0.00 0.00 20 1009.5
20260504221004 23 227 3.2 14.5 0.00 0.00 0.00 19 1009.5
20260504220004 24 190 3.2 12.9 0.00 0.00 0.00 19 1009.5
20260504215005 23 209 1.6 12.9 0.00 0.00 0.00 18 1010.3
20260504214004 23 67 1.6 14.5 0.00 0.00 0.00 16 1010.3
20260504213004 25 348 0.0 6.4 0.00 0.00 0.00 19 1010.3
20260504212005 23 34 3.2 14.5 0.00 0.00 0.00 22 1010.3
20260504211004 22 345 3.2 14.5 0.00 0.00 0.00 22 1010.3
20260504210005 23 324 1.6 11.3 0.00 0.00 0.00 25 1010.3
20260504205004 22 277 1.6 12.9 0.00 0.00 0.00 25 1011.1
20260504204004 23 302 1.6 11.3 0.00 0.00 0.00 27 1011.1
20260504203004 22 201 3.2 14.5 0.00 0.00 0.00 24 1011.1
20260504202005 22 329 1.6 12.9 0.00 0.00 0.00 25 1011.1
20260504201004 22 23 1.6 11.3 0.00 0.00 0.00 30 1011.1
20260504200004 22 139 1.6 9.7 0.00 0.00 0.00 31 1011.1
20260504195004 22 118 1.6 8.0 0.00 0.00 0.00 29 1011.7
20260504194004 22 97 0.0 6.4 0.00 0.00 0.00 27 1011.7
20260504193004 22 49 0.0 6.4 0.00 0.00 0.00 27 1011.7
20260504192004 22 347 0.0 6.4 0.00 0.00 0.00 27 1011.7
20260504191004 21 203 1.6 9.7 0.00 0.00 0.00 26 1011.7
20260504190004 22 194 0.0 6.4 0.00 0.00 0.00 29 1011.7
20260504185004 21 98 0.0 4.8 0.00 0.00 0.00 34 1012.6
20260504184004 20 250 1.6 8.0 0.00 0.00 0.00 31 1012.6
20260504183004 20 54 1.6 8.0 0.00 0.00 0.00 35 1012.6
20260504182004 21 280 0.0 6.4 0.00 0.00 0.00 33 1012.6
20260504181004 20 15 0.0 4.8 0.00 0.00 0.00 36 1012.6
20260504180005 19 286 1.6 9.7 0.00 0.00 0.00 37 1012.6
20260504175004 19 326 1.6 8.0 0.00 0.00 0.00 38 1013.0
20260504174004 18 286 1.6 8.0 0.00 0.00 0.00 38 1013.0
20260504173004 18 310 1.6 8.0 0.00 0.00 0.00 37 1013.0
20260504172004 17 219 1.6 9.7 0.00 0.00 0.00 38 1013.0
20260504171004 17 335 1.6 8.0 0.00 0.00 0.00 40 1013.0
20260504151005 11 293 1.6 6.4 0.00 0.00 0.00 51 1013.5
20260504141004 9 217 0.0 3.2 0.00 0.00 0.00 61 1013.9
20260504082005 6 88 0.0 3.2 0.00 0.00 0.00 59 1012.9
20260504081005 6 263 0.0 3.2 0.00 0.00 0.00 65 1012.9